Location: Ch�risy
(50.2331°N, 2.9131°E)
Time: 18:12:55
(UTC+00:00)

Cosmos 2228 - Pass Details

Date: 17 January 2021
Orbit: 589 x 617 km, 82.5° (Epoch: 27 February)

Event Time Altitude Azimuth Distance (km) Brightness Sun altitude
Rises 18:01:26 0° 347° (NNW) 2,838 6.5 -16.1°
Reaches altitude 10° 18:03:39 10° 345° (NNW) 1,933 5.6 -16.5°
Maximum altitude 18:07:52 65° 264° (W) 658 3.4 -17.1°
Drops below altitude 10° 18:12:05 10° 183° (S) 1,927 5.7 -17.8°
Sets 18:14:18 0° 180° (S) 2,828 6.6 -18.1°
